FloripaSat 1
1 44885U 19093G   25170.83104139  .00003852  00000-0  32617-3 0  9995
2 44885  97.8151 258.4532 0010840 168.5982 191.5488 14.98567036298287
RS-44
1 44909U 19096E   25170.24815301  .00000004  00000-0 -20438-4 0  9996
2 44909  82.5208 220.8549 0216244 272.9990  84.6386 12.79741265255966
UPMSat 2
1 46276U 20061E   25170.18698584  .00065407  00000-0  54315-3 0  9991
2 46276  97.2432 244.8999 0002164 161.4323 198.7019 15.69984441266978
SALSAT
1 46495U 20068K   25170.34105393  .00006019  00000-0  25974-3 0  9993
2 46495  97.8606 148.8208 0012864 123.9622 236.2838 15.22862561260012
CubeSX-Sirius-HSE
1 47951U 21022V   25157.62701764  .07883385  25648-5  89537-3 0  9993
2 47951  97.4004  72.1904 0010275 223.9924 136.0557 16.36879307233400
CubeSX-HSE
1 47952U 21022W   25157.69972699  .06655353  25454-5  93288-3 0  9992
2 47952  97.3980  72.5414 0010307 219.3637 140.6911 16.34906352233436
GRBAlpha
1 47959U 21022AD  25160.45426279  .07940347  25506-5  90589-3 0  9995
2 47959  97.3899  75.6235 0011032 227.2558 132.7812 16.36806138232695
TUBIN
1 48900U 21059X   25170.78828470  .00030533  00000-0  35914-3 0  9996
2 48900  97.6756 340.8513 0003946 181.7205 178.4039 15.61378559221639
LEDSAT
1 49069U 21073D   25170.17612243  .00062140  00000-0  70796-3 0  9997
2 49069  97.3882 252.1227 0008152  49.8527 310.3444 15.62026176212931
CUTE
1 49263U 21088D   25170.57740476  .00011143  00000-0  21985-3 0  9996
2 49263  97.4504 247.1240 0008040 194.2656 165.8368 15.47320951205977
TeikyoSat 4
1 49396U 21102B   25170.10839343  .00001869  00000-0  12626-3 0  9997
2 49396  97.4096 208.1927 0014260 100.2460 260.0377 15.07681758197980
Z-Sat
1 49399U 21102E   25170.85994226  .00003707  00000-0  20397-3 0  9991
2 49399  97.3793 212.0763 0019662  70.9719 289.3641 15.14492576198535
KOSEN 1
1 49402U 21102H   25170.54320803  .00005626  00000-0  26019-3 0  9995
2 49402  97.3700 215.2595 0016897  49.3522 310.9179 15.20418084198801
HO-113
1 50466U 21131B   25170.83041476  .00000378  00000-0  13168-3 0  9997
2 50466  98.5105 260.1330 0005452 104.0699 256.1096 14.40826101182929
Foresail-1
1 52766U 22057AL  25169.41097441  .00866629  42740-3  94032-3 0  9993
2 52766  97.6069 322.7769 0010250 234.0754 185.3970 16.09882216171313
SNUGLITE 2
1 52899U 22065F   25170.81593660  .00000878  00000-0  17952-3 0  9991
2 52899  98.1701 312.6902 0008921  83.7003 276.5215 14.63236174157980
UmKA 1 (RS40S)
1 57172U 23091G   25170.84154742  .00004454  00000-0  23860-3 0  9996
2 57172  97.5574 226.1702 0012844 302.0332  57.9652 15.15459341109038
CubeBel-2 (EU11S)
1 57175U 23091K   25170.84429979  .00007158  00000-0  33988-3 0  9992
2 57175  97.5573 227.3819 0010613 310.4075  49.6233 15.19505212109116
VERONIKA
1 58261U 23174F   25170.70724331  .00134892  00000-0  96312-3 0  9992
2 58261  97.4101 257.5118 0001543 299.7532  60.3578 15.73373397 90270
ENSO
1 58470U 23185J   25170.85998676  .00042853  00000-0  59437-3 0  9999
2 58470  97.3728 246.3155 0006387  56.3550 303.8313 15.56917268 86630
EIRSAT-1
1 58472U 23185L   25170.85206664  .00090437  00000-0  76096-3 0  9991
2 58472  97.3672 248.3948 0003028  69.5815 290.5772 15.69576805 86779
SONATE-2
1 59112U 24043Q   25169.94147205  .00013735  00000-0  39240-3 0  9996
2 59112  97.5145 301.3091 0012163  84.0616 276.2013 15.36052543 71773
MO-122
1 60209U 24125G   25170.14925628  .00014412  00000-0  40489-3 0  9993
2 60209  97.2789  21.6616 0020336 103.0170 257.3346 15.36420466 53420
GRBBeta
1 60237U 24128C   25170.38472623  .00003819  00000-0  29178-3 0  9996
2 60237  61.9924  45.3702 0052712  59.7479 300.8815 15.02717133 51674
Curium One
1 60242U 24128H   25170.07279387  .00006329  00000-0  44200-3 0  9992
2 60242  61.9822  44.6111 0052574  55.8903 304.7161 15.05249452 51661
ROBUSTA-3A
1 60243U 24128J   25170.07841556  .00006283  00000-0  44502-3 0  9990
2 60243  61.9892  45.4511 0051426  53.5640 307.0176 15.04781210 51653
CatSat
1 60246U 24125J   25170.10666910  .00007943  00000-0  26366-3 0  9995
2 60246  97.2587  20.7256 0043749  61.7213 298.8433 15.30550710 51445
HYPERVIEW-1G (RS66S)
1 61772U 24199AP  25170.84101835  .00015555  00000-0  44616-3 0  9998
2 61772  97.3527  39.6793 0014649 149.6203 210.5892 15.35860091 78532
AO-123
1 61781U 24199AY  25170.85864356  .00005203  00000-0  18967-3 0  9992
2 61781  97.3542  38.4740 0016529 155.6600 204.5424 15.28485980 78452
ZIMSAT 2
1 61783U 24199BA  25170.85783787  .00028432  00000-0  67994-3 0  9995
2 61783  97.3504  40.3883 0014685 146.7591 213.4582 15.41329093 81739
HADES-R (SO-124)
1 62690U 25009CK  25170.48900129  .00030012  00000-0  10399-2 0  9997
2 62690  97.4087 251.2593 0003548  85.1093 275.0552 15.29782370 23660
HYDRA-T
1 62692U 25009CM  25170.21117513  .00030989  00000-0  10652-2 0  9992
2 62692  97.4086 251.0194 0003171  83.5573 276.6028 15.30036651 23620
JINJUSat 1B
1 63210U 25052A   25170.26795133  .00008477  00000-0  38703-3 0  9997
2 63210  97.4408  64.2687 0002439 303.0913  57.0088 15.20841121 14723
NUSHSAT 1
1 63211U 25052B   25169.66931418  .00010130  00000-0  45860-3 0  9999
2 63211  97.4397  63.6807 0002622 316.3633  43.7394 15.21078144 14638
TEVEL2-4
1 63213U 25052D   25170.14529320  .00009366  00000-0  42795-3 0  9994
2 63213  97.4314  64.0130 0002303 348.5397  11.5785 15.20782634 14703
TEVEL2-5
1 63214U 25052E   25170.14599922  .00009380  00000-0  42883-3 0  9994
2 63214  97.4316  64.0124 0002324 347.9394  12.1785 15.20763020 14707
TEVEL2-6
1 63215U 25052F   25169.68778608  .00009334  00000-0  42733-3 0  9995
2 63215  97.4315  63.5561 0002450 351.0119   9.1072 15.20714057 14630
TEVEL2-1
1 63217U 25052H   25170.42406740  .00009540  00000-0  43929-3 0  9993
2 63217  97.4293  64.2228 0002997   0.9985 359.1256 15.20508622 14745
TEVEL2-2
1 63218U 25052J   25170.42436748  .00009619  00000-0  44291-3 0  9995
2 63218  97.4296  64.2235 0003067   1.4445 358.6799 15.20509498 14741
TEVEL2-3
1 63219U 25052K   25170.42452239  .00009709  00000-0  44705-3 0  9999
2 63219  97.4292  64.2228 0003063   1.5833 358.5412 15.20504190 14743
TEVEL2-8
1 63237U 25052AD  25169.70743203  .00009562  00000-0  45590-3 0  9992
2 63237  97.4356  63.4270 0007779 357.8554   2.2646 15.19282383 14621
TEVEL2-9
1 63238U 25052AE  25169.64426840  .00008967  00000-0  42852-3 0  9997
2 63238  97.4358  63.3605 0007880 358.1201   2.0002 15.19218803 14610
TEVEL2-7
1 63239U 25052AF  25170.50268953  .00008609  00000-0  41183-3 0  9993
2 63239  97.4357  64.1993 0007757 355.1611   4.9547 15.19199269 14747
HYDRA-W
1 63490U 25052BL  25169.93823545  .00022933  00000-0  95521-3 0  9992
2 63490  97.4300  63.9722 0010842 350.4809   9.6221 15.23680302 14689
HADES-ICM (SO-125)
1 63492U 25052BN  25170.48139251  .00021229  00000-0  89572-3 0  9996
2 63492  97.4310  64.4758 0011280 352.1754   7.9305 15.23254768 14768
